Location: Blankensee
(53.5126°N, 14.3055°E)
Time: 18:59:59
(UTC+00:00)

Cosmos 2263 Rocket - Pass Details

Date: 08 August 2020
Orbit: 824 x 848 km, 71.0° (Epoch: 20 September)

Event Time Altitude Azimuth Distance (km) Brightness Sun altitude
Exits shadow 02:08:11 - 183° (S) 2,852 4.5 -10.5°
Reaches altitude 10° 02:09:22 10° 180° (S) 2,423 4.2 -10.4°
Maximum altitude 02:14:33 42° 111° (ESE) 1,161 3.2 -9.9°
Drops below altitude 10° 02:19:46 10° 42° (NE) 2,435 6.3 -9.3°
Sets 02:22:18 0° 35° (NE) 3,373 7.3 -9.0°
